Change the Weather History Date:

Friday, January 31, 2014

  Actual Average Record
Temperature  
Mean Temperature 53 °F 42 °F  
Max Temperature 61 °F 55 °F 78 °F (2002)
Min Temperature 45 °F 29 °F 7 °F (1977)
Degree Days  
Heating Degree Days 12 23  
Month to date heating degree days 828 730  
Since 1 July heating degree days 2141 1936  
Cooling Degree Days 0 0  
Month to date cooling degree days 0 1  
Year to date cooling degree days 0 1  
Growing Degree Days 3 (Base 50)    
Moisture  
Dew Point 45 °F    
Average Humidity 79    
Maximum Humidity 93    
Minimum Humidity 65    
Precipitation  
Precipitation 0.00 in 0.11 in 2.11 in (1975)
Month to date precipitation 0.92 3.32  
Year to date precipitation 0.92 3.32  
Snow  
Snow 0.00 in - - ()
Month to date snowfall T  
Since 1 July snowfall 0.1  
Snow Depth 0.00 in    
Sea Level Pressure  
Sea Level Pressure 29.88 in    
Wind  
Wind Speed 6 mph (ESE)    
Max Wind Speed 13 mph    
Max Gust Speed 17 mph    
Visibility 10 miles    
Events      
T = Trace of Precipitation, MM = Missing Value Source: NWS Daily Summary

Daily Weather History Graph

Daily Weather History Graph

Search for Another Location

Airport or City:

Trip Planner

Search our weather history database for the weather conditions in past years. The results will help you decide how hot, cold, wet, or windy it might be!

Date:

Astronomy

Jan. 31, 2014 Rise Set
Actual Time 7:15 AM CST 5:47 PM CST
Civil Twilight 6:49 AM CST 6:13 PM CST
Nautical Twilight 6:19 AM CST 6:43 PM CST
Astronomical Twilight 5:49 AM CST 7:12 PM CST
Moon 7:30 AM CST (1/31) 7:06 PM CST (1/31)
Length of Visible Light 11h 24m
Length of Day
10h 31m
New Moon, 1% of the Moon is Illuminated
Jan 31
New Moon
Feb 6
First Quarter
Feb 14
Full
Feb 22
Last Quarter
Mar 1
New

Hourly Weather History & Observations

Time (CST) Temp. Windchill Dew Point Humidity Pressure Visibility Wind Dir Wind Speed Gust Speed Precip Events Conditions
12:17 AM 46.9 °F - 36.0 °F 66% 29.93 in 10.0 mi East 4.6 mph - N/A   Overcast
12:53 AM 48.0 °F - 37.0 °F 66% 29.93 in 10.0 mi ESE 4.6 mph - N/A   Overcast
1:53 AM 48.0 °F - 37.9 °F 68% 29.93 in 10.0 mi East 3.5 mph - N/A   Overcast
2:53 AM 46.9 °F - 37.9 °F 71% 29.92 in 10.0 mi ENE 5.8 mph - N/A   Overcast
3:53 AM 46.9 °F - 37.9 °F 71% 29.91 in 10.0 mi East 6.9 mph - N/A   Overcast
4:38 AM 46.9 °F - 37.9 °F 71% 29.90 in 10.0 mi ESE 9.2 mph - N/A   Overcast
4:53 AM 46.0 °F 41.9 °F 37.9 °F 73% 29.90 in 10.0 mi ESE 8.1 mph - N/A   Overcast
5:44 AM 45.0 °F 41.2 °F 39.9 °F 82% 29.91 in 10.0 mi ESE 6.9 mph - N/A   Overcast
5:53 AM 45.0 °F 40.1 °F 39.9 °F 82% 29.91 in 10.0 mi ESE 9.2 mph - N/A   Overcast
6:12 AM 45.0 °F 41.2 °F 39.9 °F 82% 29.91 in 10.0 mi ESE 6.9 mph - N/A   Overcast
6:40 AM 46.0 °F 43.1 °F 39.9 °F 79% 29.93 in 10.0 mi East 5.8 mph - N/A   Overcast
6:53 AM 46.0 °F 42.5 °F 39.9 °F 79% 29.93 in 10.0 mi ESE 6.9 mph - N/A   Overcast
7:06 AM 46.0 °F 42.5 °F 39.9 °F 79% 29.92 in 9.0 mi East 6.9 mph - N/A   Overcast
7:53 AM 46.0 °F 42.5 °F 41.0 °F 83% 29.93 in 10.0 mi East 6.9 mph - N/A   Overcast
8:53 AM 46.9 °F - 42.1 °F 83% 29.95 in 10.0 mi ESE 5.8 mph - N/A   Overcast
9:53 AM 48.9 °F - 44.1 °F 83% 29.94 in 10.0 mi ESE 5.8 mph - N/A   Overcast
10:53 AM 52.0 °F - 45.0 °F 77% 29.94 in 9.0 mi SSE 5.8 mph - N/A   Overcast
11:29 AM 54.0 °F - 46.9 °F 77% 29.92 in 9.0 mi Variable 6.9 mph - N/A   Overcast
11:53 AM 54.0 °F - 48.0 °F 80% 29.91 in 9.0 mi South 9.2 mph - N/A   Overcast
12:53 PM 55.9 °F - 48.9 °F 77% 29.88 in 8.0 mi ESE 5.8 mph - N/A   Overcast
1:53 PM 57.9 °F - 50.0 °F 75% 29.84 in 10.0 mi SSE 8.1 mph - N/A   Overcast
2:53 PM 57.9 °F - 50.0 °F 75% 29.84 in 10.0 mi ESE 5.8 mph - N/A   Overcast
3:53 PM 61.0 °F - 51.1 °F 70% 29.82 in 10.0 mi ESE 6.9 mph - N/A   Scattered Clouds
4:53 PM 60.1 °F - 52.0 °F 75% 29.81 in 10.0 mi ESE 6.9 mph - N/A   Clear
5:53 PM 57.0 °F - 51.1 °F 81% 29.81 in 10.0 mi ENE 4.6 mph - N/A   Clear
6:53 PM 54.0 °F - 50.0 °F 86% 29.83 in 10.0 mi NE 5.8 mph - N/A   Clear
7:53 PM 51.1 °F - 48.9 °F 92% 29.83 in 8.0 mi NE 4.6 mph - N/A   Scattered Clouds
8:53 PM 53.1 °F - 51.1 °F 93% 29.82 in 9.0 mi ENE 3.5 mph - N/A   Overcast
9:53 PM 55.9 °F - 53.1 °F 90% 29.81 in 10.0 mi East 3.5 mph - N/A   Overcast
10:53 PM 61.0 °F - 55.0 °F 81% 29.81 in 10.0 mi SSE 8.1 mph - N/A   Overcast
11:12 PM 61.0 °F - 54.0 °F 78% 29.82 in 10.0 mi South 8.1 mph - N/A   Overcast
11:53 PM 61.0 °F - 54.0 °F 78% 29.81 in 10.0 mi SSE 9.2 mph - N/A   Overcast